Time,TemperatureF,DewpointF,PressureIn,WindDirection,WindDirectionDegrees,WindSpeedMPH,WindSpeedGustMPH,Humidity,HourlyPrecipIn,Conditions,Clouds,dailyrainin,SoftwareType,DateUTC
2013-07-25 00:01:00,56.7,52.2,30.07,NE,42,0.0,0.0,85,0.00,,,0.00,Wunderground v.1.15,2013-07-25 04:01:00,
2013-07-25 00:02:00,56.6,52.1,30.07,NE,42,0.0,0.0,85,0.00,,,0.00,Wunderground v.1.15,2013-07-25 04:02:00,
2013-07-25 00:03:00,56.5,52.0,30.07,NE,42,0.0,0.0,85,0.00,,,0.00,Wunderground v.1.15,2013-07-25 04:03:00,
2013-07-25 00:04:00,56.3,51.8,30.07,NE,42,0.0,0.0,85,0.00,,,0.00,Wunderground v.1.15,2013-07-25 04:04:00,
2013-07-25 00:09:00,56.0,51.6,30.07,NE,42,0.0,0.0,85,0.00,,,0.00,Wunderground v.1.15,2013-07-25 04:09:00,
2013-07-25 00:15:00,55.7,51.9,30.07,NE,42,0.0,0.0,87,0.00,,,0.00,Wunderground v.1.15,2013-07-25 04:15:00,
2013-07-25 00:21:00,55.3,51.5,30.07,NE,42,0.0,0.0,87,0.00,,,0.00,Wunderground v.1.15,2013-07-25 04:21:00,
2013-07-25 00:27:00,55.0,51.5,30.07,NE,42,0.0,0.0,88,0.00,,,0.00,Wunderground v.1.15,2013-07-25 04:27:00,
2013-07-25 00:32:00,54.8,51.3,30.07,NE,42,0.0,0.0,88,0.00,,,0.00,Wunderground v.1.15,2013-07-25 04:32:00,
2013-07-25 00:38:00,54.5,51.3,30.06,NE,42,0.0,0.0,89,0.00,,,0.00,Wunderground v.1.15,2013-07-25 04:38:00,
2013-07-25 00:43:00,54.2,51.0,30.07,NE,42,0.0,0.0,89,0.00,,,0.00,Wunderground v.1.15,2013-07-25 04:43:00,
2013-07-25 00:49:00,54.0,50.8,30.06,NE,42,0.0,0.0,89,0.00,,,0.00,Wunderground v.1.15,2013-07-25 04:49:00,
2013-07-25 00:54:00,53.7,50.5,30.06,NE,42,0.0,0.0,89,0.00,,,0.00,Wunderground v.1.15,2013-07-25 04:54:00,
2013-07-25 00:59:00,53.5,50.6,30.06,NE,42,0.0,0.0,90,0.00,,,0.00,Wunderground v.1.15,2013-07-25 04:59:00,
2013-07-25 01:05:00,53.3,50.4,30.06,NE,42,0.0,0.0,90,0.00,,,0.00,Wunderground v.1.15,2013-07-25 05:05:00,
2013-07-25 01:11:00,53.1,50.2,30.06,NE,42,0.0,0.0,90,0.00,,,0.00,Wunderground v.1.15,2013-07-25 05:11:00,
2013-07-25 01:16:00,52.9,50.0,30.06,NE,42,0.0,0.0,90,0.00,,,0.00,Wunderground v.1.15,2013-07-25 05:16:00,
2013-07-25 01:22:00,52.6,50.0,30.06,NE,42,0.0,0.0,91,0.00,,,0.00,Wunderground v.1.15,2013-07-25 05:22:00,
2013-07-25 01:27:00,52.4,49.8,30.06,NE,42,0.0,0.0,91,0.00,,,0.00,Wunderground v.1.15,2013-07-25 05:27:00,
2013-07-25 01:33:00,52.4,50.1,30.06,NE,42,0.0,0.0,92,0.00,,,0.00,Wunderground v.1.15,2013-07-25 05:33:00,
2013-07-25 01:38:00,52.3,50.0,30.06,NE,42,0.0,0.0,92,0.00,,,0.00,Wunderground v.1.15,2013-07-25 05:38:00,
2013-07-25 01:44:00,52.2,49.9,30.06,NE,42,0.0,0.0,92,0.00,,,0.00,Wunderground v.1.15,2013-07-25 05:44:00,
2013-07-25 01:49:00,52.0,49.7,30.06,NE,42,0.0,0.0,92,0.00,,,0.00,Wunderground v.1.15,2013-07-25 05:49:00,
2013-07-25 01:55:00,51.9,49.6,30.06,NE,42,0.0,0.0,92,0.00,,,0.00,Wunderground v.1.15,2013-07-25 05:55:00,
2013-07-25 02:01:00,51.8,49.8,30.06,NE,42,0.0,0.0,93,0.00,,,0.00,Wunderground v.1.15,2013-07-25 06:01:00,
2013-07-25 02:06:00,51.7,49.5,30.06,NE,42,0.0,0.0,92,0.00,,,0.00,Wunderground v.1.15,2013-07-25 06:06:00,
2013-07-25 02:12:00,51.5,49.3,30.06,NE,42,0.0,0.0,92,0.00,,,0.00,Wunderground v.1.15,2013-07-25 06:12:00,
2013-07-25 02:18:00,51.3,49.1,30.07,NE,42,0.0,0.0,92,0.00,,,0.00,Wunderground v.1.15,2013-07-25 06:18:00,
2013-07-25 02:24:00,51.1,48.9,30.07,NE,42,0.0,0.0,92,0.00,,,0.00,Wunderground v.1.15,2013-07-25 06:24:00,
2013-07-25 02:30:00,50.8,48.6,30.06,NE,42,0.0,0.0,92,0.00,,,0.00,Wunderground v.1.15,2013-07-25 06:30:00,
2013-07-25 02:36:00,50.9,48.9,30.07,NE,42,0.0,0.0,93,0.00,,,0.00,Wunderground v.1.15,2013-07-25 06:36:00,
2013-07-25 02:41:00,50.8,48.8,30.07,NE,42,0.0,0.0,93,0.00,,,0.00,Wunderground v.1.15,2013-07-25 06:41:00,
2013-07-25 02:47:00,50.7,48.7,30.07,NE,42,0.0,0.0,93,0.00,,,0.00,Wunderground v.1.15,2013-07-25 06:47:00,
2013-07-25 02:52:00,50.5,48.6,30.08,NE,42,0.0,0.0,93,0.00,,,0.00,Wunderground v.1.15,2013-07-25 06:52:00,
2013-07-25 02:58:00,50.3,48.4,30.08,NE,42,0.0,0.0,93,0.00,,,0.00,Wunderground v.1.15,2013-07-25 06:58:00,
2013-07-25 03:04:00,50.1,48.2,30.08,NE,42,0.0,0.0,93,0.00,,,0.00,Wunderground v.1.15,2013-07-25 07:04:00,
2013-07-25 03:09:00,50.1,48.4,30.08,NE,42,0.0,0.0,94,0.00,,,0.00,Wunderground v.1.15,2013-07-25 07:09:00,
2013-07-25 03:15:00,50.2,48.5,30.08,NE,42,0.0,0.0,94,0.00,,,0.00,Wunderground v.1.15,2013-07-25 07:15:00,
2013-07-25 03:21:00,50.2,48.5,30.08,NE,42,0.0,0.0,94,0.00,,,0.00,Wunderground v.1.15,2013-07-25 07:21:00,
2013-07-25 03:27:00,50.2,48.5,30.08,NE,42,0.0,0.0,94,0.00,,,0.00,Wunderground v.1.15,2013-07-25 07:27:00,
2013-07-25 03:33:00,50.3,48.6,30.08,NE,42,0.0,0.0,94,0.00,,,0.00,Wunderground v.1.15,2013-07-25 07:33:00,
2013-07-25 03:39:00,50.2,48.5,30.08,NE,42,0.0,0.0,94,0.00,,,0.00,Wunderground v.1.15,2013-07-25 07:39:00,
2013-07-25 03:44:00,50.0,48.3,30.08,NE,42,0.0,0.0,94,0.00,,,0.00,Wunderground v.1.15,2013-07-25 07:44:00,
2013-07-25 03:50:00,49.9,48.2,30.08,NE,42,0.0,0.0,94,0.00,,,0.00,Wunderground v.1.15,2013-07-25 07:50:00,
2013-07-25 03:55:00,49.7,48.0,30.08,NE,42,0.0,0.0,94,0.00,,,0.00,Wunderground v.1.15,2013-07-25 07:55:00,
2013-07-25 04:01:00,49.6,47.9,30.08,NE,42,0.0,0.0,94,0.00,,,0.00,Wunderground v.1.15,2013-07-25 08:01:00,
2013-07-25 04:06:00,49.5,47.8,30.08,NE,42,0.0,0.0,94,0.00,,,0.00,Wunderground v.1.15,2013-07-25 08:06:00,
2013-07-25 04:11:00,49.3,47.6,30.08,NE,42,0.0,0.0,94,0.00,,,0.00,Wunderground v.1.15,2013-07-25 08:11:00,
2013-07-25 04:16:00,49.2,47.5,30.08,NE,42,0.0,0.0,94,0.00,,,0.00,Wunderground v.1.15,2013-07-25 08:16:00,
2013-07-25 04:22:00,49.0,47.3,30.08,NE,42,0.0,0.0,94,0.00,,,0.00,Wunderground v.1.15,2013-07-25 08:22:00,
2013-07-25 04:28:00,48.8,47.2,30.08,NE,42,0.0,0.0,94,0.00,,,0.00,Wunderground v.1.15,2013-07-25 08:28:00,
2013-07-25 04:33:00,48.6,47.0,30.08,NE,42,0.0,0.0,94,0.00,,,0.00,Wunderground v.1.15,2013-07-25 08:33:00,
2013-07-25 04:39:00,48.5,46.9,30.08,NE,42,0.0,0.0,94,0.00,,,0.00,Wunderground v.1.15,2013-07-25 08:39:00,
2013-07-25 04:45:00,48.4,46.8,30.08,NE,42,0.0,0.0,94,0.00,,,0.00,Wunderground v.1.15,2013-07-25 08:45:00,
2013-07-25 04:50:00,48.3,46.7,30.08,NE,42,0.0,0.0,94,0.00,,,0.00,Wunderground v.1.15,2013-07-25 08:50:00,
2013-07-25 04:56:00,48.3,46.7,30.08,NE,42,0.0,0.0,94,0.00,,,0.00,Wunderground v.1.15,2013-07-25 08:56:00,
2013-07-25 05:01:00,48.3,46.7,30.08,NE,42,0.0,0.0,94,0.00,,,0.00,Wunderground v.1.15,2013-07-25 09:01:00,
2013-07-25 05:06:00,48.3,46.7,30.08,NE,42,0.0,0.0,94,0.00,,,0.00,Wunderground v.1.15,2013-07-25 09:06:00,
2013-07-25 05:13:00,48.3,46.9,30.08,NE,42,0.0,0.0,95,0.00,,,0.00,Wunderground v.1.15,2013-07-25 09:13:00,
2013-07-25 05:18:00,48.3,46.9,30.09,NE,42,0.0,0.0,95,0.00,,,0.00,Wunderground v.1.15,2013-07-25 09:18:00,
2013-07-25 05:23:00,48.3,46.9,30.09,NE,42,0.0,0.0,95,0.00,,,0.00,Wunderground v.1.15,2013-07-25 09:23:00,
2013-07-25 05:29:00,48.4,47.0,30.09,NE,42,0.0,0.0,95,0.00,,,0.00,Wunderground v.1.15,2013-07-25 09:29:00,
2013-07-25 05:35:00,48.3,46.9,30.09,NE,42,0.0,0.0,95,0.00,,,0.00,Wunderground v.1.15,2013-07-25 09:35:00,
2013-07-25 05:41:00,48.2,46.8,30.09,NE,42,0.0,0.0,95,0.00,,,0.00,Wunderground v.1.15,2013-07-25 09:41:00,
2013-07-25 05:46:00,48.2,46.8,30.09,NE,42,0.0,0.0,95,0.00,,,0.00,Wunderground v.1.15,2013-07-25 09:46:00,
2013-07-25 05:52:00,48.1,46.7,30.09,NE,42,0.0,0.0,95,0.00,,,0.00,Wunderground v.1.15,2013-07-25 09:52:00,
2013-07-25 05:58:00,48.1,46.7,30.09,NE,42,0.0,0.0,95,0.00,,,0.00,Wunderground v.1.15,2013-07-25 09:58:00,
2013-07-25 06:03:00,48.2,46.8,30.09,NE,42,0.0,0.0,95,0.00,,,0.00,Wunderground v.1.15,2013-07-25 10:03:00,
2013-07-25 06:09:00,48.1,46.7,30.10,NE,42,0.0,0.0,95,0.00,,,0.00,Wunderground v.1.15,2013-07-25 10:09:00,
2013-07-25 06:14:00,48.0,46.6,30.10,NE,42,0.0,0.0,95,0.00,,,0.00,Wunderground v.1.15,2013-07-25 10:14:00,
2013-07-25 06:20:00,47.9,46.5,30.10,NE,42,0.0,0.0,95,0.00,,,0.00,Wunderground v.1.15,2013-07-25 10:20:00,
2013-07-25 06:26:00,47.9,46.5,30.10,NE,42,0.0,0.0,95,0.00,,,0.00,Wunderground v.1.15,2013-07-25 10:26:00,
2013-07-25 06:32:00,47.8,46.4,30.11,NE,42,0.0,0.0,95,0.00,,,0.00,Wunderground v.1.15,2013-07-25 10:32:00,
2013-07-25 06:38:00,47.8,46.4,30.11,NE,42,0.0,0.0,95,0.00,,,0.00,Wunderground v.1.15,2013-07-25 10:38:00,
2013-07-25 06:43:00,47.8,46.4,30.11,NE,42,0.0,0.0,95,0.00,,,0.00,Wunderground v.1.15,2013-07-25 10:43:00,
2013-07-25 06:48:00,47.8,46.4,30.11,NE,42,0.0,0.0,95,0.00,,,0.00,Wunderground v.1.15,2013-07-25 10:48:00,
2013-07-25 06:53:00,47.8,46.4,30.11,NE,42,0.0,0.0,95,0.00,,,0.00,Wunderground v.1.15,2013-07-25 10:53:00,
2013-07-25 06:59:00,48.1,46.7,30.11,NE,42,0.0,0.0,95,0.00,,,0.00,Wunderground v.1.15,2013-07-25 10:59:00,
2013-07-25 07:05:00,48.3,46.9,30.11,NE,42,0.0,0.0,95,0.00,,,0.00,Wunderground v.1.15,2013-07-25 11:05:00,
2013-07-25 07:10:00,48.4,47.0,30.11,NE,42,0.0,0.0,95,0.00,,,0.00,Wunderground v.1.15,2013-07-25 11:10:00,
2013-07-25 07:16:00,48.6,47.2,30.11,NE,42,0.0,0.0,95,0.00,,,0.00,Wunderground v.1.15,2013-07-25 11:16:00,
2013-07-25 07:21:00,48.8,47.4,30.11,NE,42,0.0,0.0,95,0.00,,,0.00,Wunderground v.1.15,2013-07-25 11:21:00,
2013-07-25 07:27:00,49.2,47.8,30.11,NE,42,0.0,0.0,95,0.00,,,0.00,Wunderground v.1.15,2013-07-25 11:27:00,
2013-07-25 07:32:00,49.6,48.2,30.11,NE,42,0.0,0.0,95,0.00,,,0.00,Wunderground v.1.15,2013-07-25 11:32:00,
2013-07-25 07:38:00,50.3,49.2,30.11,NE,42,0.0,0.0,96,0.00,,,0.00,Wunderground v.1.15,2013-07-25 11:38:00,
2013-07-25 07:43:00,50.8,49.7,30.11,NE,42,0.0,0.0,96,0.00,,,0.00,Wunderground v.1.15,2013-07-25 11:43:00,
2013-07-25 07:48:00,51.5,50.4,30.11,NE,42,0.0,0.0,96,0.00,,,0.00,Wunderground v.1.15,2013-07-25 11:48:00,
2013-07-25 07:54:00,52.1,51.0,30.12,NE,42,0.0,0.0,96,0.00,,,0.00,Wunderground v.1.15,2013-07-25 11:54:00,
2013-07-25 07:59:00,52.8,51.7,30.12,NE,42,0.0,0.0,96,0.00,,,0.00,Wunderground v.1.15,2013-07-25 11:59:00,
2013-07-25 08:04:00,53.3,52.2,30.12,NE,42,0.0,0.0,96,0.00,,,0.00,Wunderground v.1.15,2013-07-25 12:04:00,
2013-07-25 08:10:00,53.7,52.6,30.12,NE,42,0.0,0.0,96,0.00,,,0.00,Wunderground v.1.15,2013-07-25 12:10:00,
2013-07-25 08:16:00,54.2,53.1,30.12,NE,42,0.0,0.0,96,0.00,,,0.00,Wunderground v.1.15,2013-07-25 12:16:00,
2013-07-25 08:22:00,54.5,53.4,30.13,NE,43,0.0,0.0,96,0.00,,,0.00,Wunderground v.1.15,2013-07-25 12:22:00,
2013-07-25 08:27:00,54.8,53.7,30.12,NE,43,0.0,0.0,96,0.00,,,0.00,Wunderground v.1.15,2013-07-25 12:27:00,
2013-07-25 08:33:00,55.3,54.2,30.12,SSE,150,0.0,4.0,96,0.00,,,0.00,Wunderground v.1.15,2013-07-25 12:33:00,
2013-07-25 08:39:00,55.9,54.2,30.13,SSE,149,0.0,0.0,94,0.00,,,0.00,Wunderground v.1.15,2013-07-25 12:39:00,
2013-07-25 08:44:00,56.3,54.3,30.13,SSE,149,0.0,0.0,93,0.00,,,0.00,Wunderground v.1.15,2013-07-25 12:44:00,
2013-07-25 08:50:00,56.9,54.3,30.13,SSE,149,0.0,0.0,91,0.00,,,0.00,Wunderground v.1.15,2013-07-25 12:50:00,
2013-07-25 08:55:00,57.7,54.8,30.13,SSE,149,0.0,0.0,90,0.00,,,0.00,Wunderground v.1.15,2013-07-25 12:55:00,
2013-07-25 09:02:00,59.0,55.1,30.13,SSE,153,0.0,0.0,87,0.00,,,0.00,Wunderground v.1.15,2013-07-25 13:02:00,
2013-07-25 09:07:00,60.1,54.9,30.12,SSE,149,0.0,2.0,83,0.00,,,0.00,Wunderground v.1.15,2013-07-25 13:07:00,
2013-07-25 09:12:00,61.2,54.6,30.12,SSW,201,1.0,2.0,79,0.00,,,0.00,Wunderground v.1.15,2013-07-25 13:12:00,
2013-07-25 09:17:00,62.1,54.1,30.13,SSW,200,1.0,2.0,75,0.00,,,0.00,Wunderground v.1.15,2013-07-25 13:17:00,
2013-07-25 09:22:00,62.9,54.1,30.12,South,189,0.0,1.0,73,0.00,,,0.00,Wunderground v.1.15,2013-07-25 13:22:00,
2013-07-25 09:28:00,63.7,54.1,30.13,South,184,1.0,1.0,71,0.00,,,0.00,Wunderground v.1.15,2013-07-25 13:28:00,
2013-07-25 09:34:00,64.4,54.4,30.13,South,184,0.0,1.0,70,0.00,,,0.00,Wunderground v.1.15,2013-07-25 13:34:00,
2013-07-25 09:39:00,65.0,53.8,30.13,South,185,0.0,0.0,67,0.00,,,0.00,Wunderground v.1.15,2013-07-25 13:39:00,
2013-07-25 09:45:00,65.6,54.3,30.13,South,184,0.0,0.0,67,0.00,,,0.00,Wunderground v.1.15,2013-07-25 13:45:00,
2013-07-25 09:50:00,66.0,54.3,30.13,South,185,0.0,0.0,66,0.00,,,0.00,Wunderground v.1.15,2013-07-25 13:50:00,
2013-07-25 09:56:00,66.5,52.6,30.13,South,182,1.0,2.0,61,0.00,,,0.00,Wunderground v.1.15,2013-07-25 13:56:00,
2013-07-25 10:01:00,66.8,52.9,30.13,South,182,1.0,1.0,61,0.00,,,0.00,Wunderground v.1.15,2013-07-25 14:01:00,
2013-07-25 10:07:00,66.9,54.3,30.13,South,186,0.0,1.0,64,0.00,,,0.00,Wunderground v.1.15,2013-07-25 14:07:00,
2013-07-25 10:13:00,67.1,52.7,30.13,South,190,1.0,4.0,60,0.00,,,0.00,Wunderground v.1.15,2013-07-25 14:13:00,
2013-07-25 10:19:00,67.2,53.7,30.13,South,190,1.0,2.0,62,0.00,,,0.00,Wunderground v.1.15,2013-07-25 14:19:00,
2013-07-25 10:25:00,67.7,55.5,30.13,South,190,0.0,2.0,65,0.00,,,0.00,Wunderground v.1.15,2013-07-25 14:25:00,
2013-07-25 10:31:00,68.4,53.0,30.13,South,190,0.0,0.0,58,0.00,,,0.00,Wunderground v.1.15,2013-07-25 14:31:00,
2013-07-25 10:37:00,68.8,52.9,30.13,South,191,1.0,4.0,57,0.00,,,0.00,Wunderground v.1.15,2013-07-25 14:37:00,
2013-07-25 10:42:00,69.1,54.6,30.13,South,191,1.0,1.0,60,0.00,,,0.00,Wunderground v.1.15,2013-07-25 14:42:00,
2013-07-25 10:47:00,69.7,56.1,30.13,SSE,157,0.0,0.0,62,0.00,,,0.00,Wunderground v.1.15,2013-07-25 14:47:00,
2013-07-25 10:53:00,70.2,54.7,30.13,ENE,68,1.0,3.0,58,0.00,,,0.00,Wunderground v.1.15,2013-07-25 14:53:00,
2013-07-25 10:59:00,70.5,54.0,30.13,ENE,64,1.0,1.0,56,0.00,,,0.00,Wunderground v.1.15,2013-07-25 14:59:00,
2013-07-25 11:04:00,70.3,54.3,30.13,ENE,64,0.0,1.0,57,0.00,,,0.00,Wunderground v.1.15,2013-07-25 15:04:00,
2013-07-25 11:11:00,70.2,53.3,30.13,South,175,0.0,1.0,55,0.00,,,0.00,Wunderground v.1.15,2013-07-25 15:11:00,
2013-07-25 11:16:00,70.2,56.1,30.13,South,175,0.0,1.0,61,0.00,,,0.00,Wunderground v.1.15,2013-07-25 15:16:00,
2013-07-25 11:21:00,70.4,54.4,30.13,NNE,33,1.0,5.0,57,0.00,,,0.00,Wunderground v.1.15,2013-07-25 15:21:00,
2013-07-25 11:26:00,70.3,53.9,30.13,NE,55,1.0,5.0,56,0.00,,,0.00,Wunderground v.1.15,2013-07-25 15:26:00,
2013-07-25 11:31:00,70.2,54.2,30.13,NE,46,0.0,2.0,57,0.00,,,0.00,Wunderground v.1.15,2013-07-25 15:31:00,
2013-07-25 11:37:00,70.0,54.5,30.13,NNE,13,1.0,1.0,58,0.00,,,0.00,Wunderground v.1.15,2013-07-25 15:37:00,
2013-07-25 11:42:00,70.3,55.8,30.13,NNE,14,1.0,2.0,60,0.00,,,0.00,Wunderground v.1.15,2013-07-25 15:42:00,
2013-07-25 11:48:00,71.0,53.5,30.13,SE,130,1.0,1.0,54,0.00,,,0.00,Wunderground v.1.15,2013-07-25 15:48:00,
2013-07-25 11:54:00,71.5,54.5,30.13,NE,51,1.0,3.0,55,0.00,,,0.00,Wunderground v.1.15,2013-07-25 15:54:00,
2013-07-25 11:59:00,71.3,54.8,30.13,NE,40,1.0,1.0,56,0.00,,,0.00,Wunderground v.1.15,2013-07-25 15:59:00,
2013-07-25 12:04:00,71.5,54.5,30.13,East,80,1.0,1.0,55,0.00,,,0.00,Wunderground v.1.15,2013-07-25 16:04:00,
2013-07-25 12:10:00,71.9,52.2,30.13,SSW,205,1.0,4.0,50,0.00,,,0.00,Wunderground v.1.15,2013-07-25 16:10:00,
2013-07-25 12:16:00,72.1,53.5,30.13,SW,214,2.0,7.0,52,0.00,,,0.00,Wunderground v.1.15,2013-07-25 16:16:00,
2013-07-25 12:21:00,72.1,53.0,30.13,SW,217,3.0,5.0,51,0.00,,,0.00,Wunderground v.1.15,2013-07-25 16:21:00,
2013-07-25 12:27:00,72.1,53.0,30.13,SSW,209,2.0,5.0,51,0.00,,,0.00,Wunderground v.1.15,2013-07-25 16:27:00,
2013-07-25 12:33:00,72.2,54.6,30.12,SW,223,1.0,5.0,54,0.00,,,0.00,Wunderground v.1.15,2013-07-25 16:33:00,
2013-07-25 12:35:00,72.2,55.1,30.12,SE,146,1.0,5.0,55,0.00,,,0.00,Wunderground v.1.15,2013-07-25 16:35:00,
2013-07-25 12:41:00,72.6,54.5,30.13,SSW,194,1.0,4.0,53,0.00,,,0.00,Wunderground v.1.15,2013-07-25 16:41:00,
2013-07-25 12:46:00,72.4,52.2,30.13,ENE,61,1.0,4.0,49,0.00,,,0.00,Wunderground v.1.15,2013-07-25 16:46:00,
2013-07-25 12:51:00,72.2,55.6,30.13,South,187,1.0,1.0,56,0.00,,,0.00,Wunderground v.1.15,2013-07-25 16:51:00,
2013-07-25 12:57:00,72.5,55.4,30.12,SSW,210,1.0,3.0,55,0.00,,,0.00,Wunderground v.1.15,2013-07-25 16:57:00,
2013-07-25 13:02:00,72.8,54.7,30.12,SW,224,1.0,6.0,53,0.00,,,0.00,Wunderground v.1.15,2013-07-25 17:02:00,
2013-07-25 13:08:00,73.0,52.7,30.13,SSW,209,2.0,2.0,49,0.00,,,0.00,Wunderground v.1.15,2013-07-25 17:08:00,
2013-07-25 13:14:00,73.0,54.9,30.12,SSW,213,2.0,4.0,53,0.00,,,0.00,Wunderground v.1.15,2013-07-25 17:14:00,
2013-07-25 13:19:00,73.1,57.4,30.12,SW,230,1.0,5.0,58,0.00,,,0.00,Wunderground v.1.15,2013-07-25 17:19:00,
2013-07-25 13:24:00,72.8,54.1,30.12,WSW,240,2.0,5.0,52,0.00,,,0.00,Wunderground v.1.15,2013-07-25 17:24:00,
2013-07-25 13:30:00,72.9,54.2,30.12,SW,230,2.0,3.0,52,0.00,,,0.00,Wunderground v.1.15,2013-07-25 17:30:00,
2013-07-25 13:36:00,73.5,55.8,30.11,SW,218,1.0,3.0,54,0.00,,,0.00,Wunderground v.1.15,2013-07-25 17:36:00,
2013-07-25 13:42:00,73.9,55.2,30.12,SSW,206,1.0,3.0,52,0.00,,,0.00,Wunderground v.1.15,2013-07-25 17:42:00,
2013-07-25 13:48:00,74.0,54.7,30.12,SSW,206,0.0,1.0,51,0.00,,,0.00,Wunderground v.1.15,2013-07-25 17:48:00,
2013-07-25 13:53:00,74.1,55.3,30.12,SW,223,0.0,4.0,52,0.00,,,0.00,Wunderground v.1.15,2013-07-25 17:53:00,
2013-07-25 13:58:00,74.0,54.7,30.12,SW,229,1.0,3.0,51,0.00,,,0.00,Wunderground v.1.15,2013-07-25 17:58:00,
2013-07-25 14:04:00,73.9,55.7,30.12,SW,227,1.0,4.0,53,0.00,,,0.00,Wunderground v.1.15,2013-07-25 18:04:00,
2013-07-25 14:10:00,74.2,57.5,30.12,SW,227,0.0,1.0,56,0.00,,,0.00,Wunderground v.1.15,2013-07-25 18:10:00,
2013-07-25 14:16:00,74.6,57.4,30.12,SW,221,0.0,1.0,55,0.00,,,0.00,Wunderground v.1.15,2013-07-25 18:16:00,
2013-07-25 14:21:00,74.9,56.6,30.12,SW,217,0.0,2.0,53,0.00,,,0.00,Wunderground v.1.15,2013-07-25 18:21:00,
2013-07-25 14:27:00,74.7,55.9,30.12,SSW,195,2.0,5.0,52,0.00,,,0.00,Wunderground v.1.15,2013-07-25 18:27:00,
2013-07-25 14:32:00,74.7,55.9,30.12,South,171,3.0,5.0,52,0.00,,,0.00,Wunderground v.1.15,2013-07-25 18:32:00,
2013-07-25 14:37:00,74.9,60.1,30.12,SSW,205,2.0,2.0,60,0.00,,,0.00,Wunderground v.1.15,2013-07-25 18:37:00,
2013-07-25 14:43:00,75.3,54.8,30.12,SSW,195,1.0,4.0,49,0.00,,,0.00,Wunderground v.1.15,2013-07-25 18:43:00,
2013-07-25 14:49:00,75.2,54.7,30.12,SSW,209,2.0,4.0,49,0.00,,,0.00,Wunderground v.1.15,2013-07-25 18:49:00,
2013-07-25 14:54:00,75.0,54.0,30.13,SSW,212,2.0,4.0,48,0.00,,,0.00,Wunderground v.1.15,2013-07-25 18:54:00,
2013-07-25 15:00:00,75.2,55.3,30.12,SW,215,1.0,2.0,50,0.00,,,0.00,Wunderground v.1.15,2013-07-25 19:00:00,
2013-07-25 15:05:00,75.4,53.8,30.12,SW,215,0.0,2.0,47,0.00,,,0.00,Wunderground v.1.15,2013-07-25 19:05:00,
2013-07-25 15:10:00,75.4,53.8,30.12,South,177,2.0,3.0,47,0.00,,,0.00,Wunderground v.1.15,2013-07-25 19:10:00,
2013-07-25 15:16:00,75.8,57.4,30.11,South,177,2.0,3.0,53,0.00,,,0.00,Wunderground v.1.15,2013-07-25 19:16:00,
2013-07-25 15:21:00,75.9,56.5,30.11,WNW,288,1.0,5.0,51,0.00,,,0.00,Wunderground v.1.15,2013-07-25 19:21:00,
2013-07-25 15:26:00,75.5,55.6,30.11,NW,309,2.0,5.0,50,0.00,,,0.00,Wunderground v.1.15,2013-07-25 19:26:00,
2013-07-25 15:31:00,75.4,56.5,30.10,NNW,346,2.0,5.0,52,0.00,,,0.00,Wunderground v.1.15,2013-07-25 19:31:00,
2013-07-25 15:37:00,76.0,55.5,30.10,SSW,195,1.0,1.0,49,0.00,,,0.00,Wunderground v.1.15,2013-07-25 19:37:00,
2013-07-25 15:42:00,76.1,54.4,30.10,SSW,195,1.0,2.0,47,0.00,,,0.00,Wunderground v.1.15,2013-07-25 19:42:00,
2013-07-25 15:48:00,76.2,57.3,30.10,SSW,200,1.0,1.0,52,0.00,,,0.00,Wunderground v.1.15,2013-07-25 19:48:00,
2013-07-25 15:53:00,76.5,55.3,30.10,South,190,1.0,1.0,48,0.00,,,0.00,Wunderground v.1.15,2013-07-25 19:53:00,
2013-07-25 15:59:00,76.6,56.0,30.10,SSW,194,1.0,2.0,49,0.00,,,0.00,Wunderground v.1.15,2013-07-25 19:59:00,
2013-07-25 16:05:00,76.6,54.9,30.10,South,189,1.0,3.0,47,0.00,,,0.00,Wunderground v.1.15,2013-07-25 20:05:00,
2013-07-25 16:10:00,76.6,54.9,30.09,SSW,194,1.0,1.0,47,0.00,,,0.00,Wunderground v.1.15,2013-07-25 20:10:00,
2013-07-25 16:16:00,76.7,55.5,30.09,SSW,202,1.0,1.0,48,0.00,,,0.00,Wunderground v.1.15,2013-07-25 20:16:00,
2013-07-25 16:21:00,76.9,55.7,30.09,SSW,197,1.0,2.0,48,0.00,,,0.00,Wunderground v.1.15,2013-07-25 20:21:00,
2013-07-25 16:27:00,77.1,55.9,30.09,South,184,1.0,2.0,48,0.00,,,0.00,Wunderground v.1.15,2013-07-25 20:27:00,
2013-07-25 16:32:00,77.2,54.8,30.09,SW,215,1.0,4.0,46,0.00,,,0.00,Wunderground v.1.15,2013-07-25 20:32:00,
2013-07-25 16:37:00,77.0,56.9,30.09,SSW,213,2.0,2.0,50,0.00,,,0.00,Wunderground v.1.15,2013-07-25 20:37:00,
2013-07-25 16:42:00,76.9,55.1,30.08,South,191,1.0,5.0,47,0.00,,,0.00,Wunderground v.1.15,2013-07-25 20:42:00,
2013-07-25 16:48:00,76.6,56.6,30.09,SSW,211,2.0,2.0,50,0.00,,,0.00,Wunderground v.1.15,2013-07-25 20:48:00,
2013-07-25 16:53:00,76.4,56.9,30.09,West,268,1.0,3.0,51,0.00,,,0.00,Wunderground v.1.15,2013-07-25 20:53:00,
2013-07-25 16:58:00,76.3,56.8,30.09,West,271,1.0,1.0,51,0.00,,,0.00,Wunderground v.1.15,2013-07-25 20:58:00,
2013-07-25 17:03:00,76.5,56.5,30.09,WSW,257,1.0,1.0,50,0.00,,,0.00,Wunderground v.1.15,2013-07-25 21:03:00,
2013-07-25 17:08:00,76.9,56.3,30.09,SW,235,1.0,4.0,49,0.00,,,0.00,Wunderground v.1.15,2013-07-25 21:08:00,
2013-07-25 17:14:00,77.1,56.5,30.09,SSW,200,1.0,5.0,49,0.00,,,0.00,Wunderground v.1.15,2013-07-25 21:14:00,
2013-07-25 17:19:00,77.2,54.8,30.09,SSW,200,1.0,2.0,46,0.00,,,0.00,Wunderground v.1.15,2013-07-25 21:19:00,
2013-07-25 17:25:00,76.7,55.0,30.09,SSW,194,1.0,2.0,47,0.00,,,0.00,Wunderground v.1.15,2013-07-25 21:25:00,
2013-07-25 17:31:00,76.5,56.5,30.09,SSW,197,2.0,2.0,50,0.00,,,0.00,Wunderground v.1.15,2013-07-25 21:31:00,
2013-07-25 17:37:00,76.8,55.0,30.09,SSW,207,1.0,5.0,47,0.00,,,0.00,Wunderground v.1.15,2013-07-25 21:37:00,
2013-07-25 17:42:00,76.7,55.0,30.09,SSW,201,2.0,5.0,47,0.00,,,0.00,Wunderground v.1.15,2013-07-25 21:42:00,
2013-07-25 17:48:00,76.8,55.0,30.09,WSW,237,1.0,1.0,47,0.00,,,0.00,Wunderground v.1.15,2013-07-25 21:48:00,
2013-07-25 17:54:00,77.1,55.9,30.09,WSW,239,0.0,1.0,48,0.00,,,0.00,Wunderground v.1.15,2013-07-25 21:54:00,
2013-07-25 18:00:00,77.3,54.9,30.08,WSW,239,0.0,0.0,46,0.00,,,0.00,Wunderground v.1.15,2013-07-25 22:00:00,
2013-07-25 18:05:00,77.4,55.6,30.08,WSW,240,0.0,1.0,47,0.00,,,0.00,Wunderground v.1.15,2013-07-25 22:05:00,
2013-07-25 18:10:00,77.5,56.8,30.08,WSW,240,0.0,0.0,49,0.00,,,0.00,Wunderground v.1.15,2013-07-25 22:10:00,
2013-07-25 18:16:00,77.8,54.8,30.08,SW,229,0.0,0.0,45,0.00,,,0.00,Wunderground v.1.15,2013-07-25 22:16:00,
2013-07-25 18:21:00,77.7,55.3,30.08,SW,226,0.0,2.0,46,0.00,,,0.00,Wunderground v.1.15,2013-07-25 22:21:00,
2013-07-25 18:26:00,77.5,55.1,30.08,SW,222,0.0,0.0,46,0.00,,,0.00,Wunderground v.1.15,2013-07-25 22:26:00,
2013-07-25 18:31:00,77.3,56.1,30.08,West,266,0.0,1.0,48,0.00,,,0.00,Wunderground v.1.15,2013-07-25 22:31:00,
2013-07-25 18:37:00,77.0,55.2,30.08,WSW,256,1.0,1.0,47,0.00,,,0.00,Wunderground v.1.15,2013-07-25 22:37:00,
2013-07-25 18:42:00,76.8,54.5,30.08,WSW,255,1.0,1.0,46,0.00,,,0.00,Wunderground v.1.15,2013-07-25 22:42:00,
2013-07-25 18:47:00,76.8,56.2,30.08,WSW,255,0.0,0.0,49,0.00,,,0.00,Wunderground v.1.15,2013-07-25 22:47:00,
2013-07-25 18:52:00,76.9,53.9,30.08,WSW,257,0.0,0.0,45,0.00,,,0.00,Wunderground v.1.15,2013-07-25 22:52:00,
2013-07-25 18:58:00,76.8,54.5,30.08,WSW,257,0.0,0.0,46,0.00,,,0.00,Wunderground v.1.15,2013-07-25 22:58:00,
2013-07-25 19:04:00,76.8,55.0,30.08,WSW,256,0.0,1.0,47,0.00,,,0.00,Wunderground v.1.15,2013-07-25 23:04:00,
2013-07-25 19:11:00,76.7,55.0,30.08,WSW,257,0.0,1.0,47,0.00,,,0.00,Wunderground v.1.15,2013-07-25 23:11:00,
2013-07-25 19:16:00,76.4,54.7,30.08,WSW,257,0.0,0.0,47,0.00,,,0.00,Wunderground v.1.15,2013-07-25 23:16:00,
2013-07-25 19:22:00,75.9,54.2,30.08,WSW,257,0.0,0.0,47,0.00,,,0.00,Wunderground v.1.15,2013-07-25 23:22:00,
2013-07-25 19:27:00,75.6,55.1,30.08,SSE,153,0.0,0.0,49,0.00,,,0.00,Wunderground v.1.15,2013-07-25 23:27:00,
2013-07-25 19:32:00,75.1,55.2,30.08,South,173,1.0,2.0,50,0.00,,,0.00,Wunderground v.1.15,2013-07-25 23:32:00,
2013-07-25 19:38:00,74.8,53.8,30.08,South,174,1.0,1.0,48,0.00,,,0.00,Wunderground v.1.15,2013-07-25 23:38:00,
2013-07-25 19:44:00,74.8,54.9,30.08,South,174,0.0,1.0,50,0.00,,,0.00,Wunderground v.1.15,2013-07-25 23:44:00,
2013-07-25 19:49:00,74.7,54.3,30.08,South,173,0.0,1.0,49,0.00,,,0.00,Wunderground v.1.15,2013-07-25 23:49:00,
2013-07-25 19:55:00,74.5,54.1,30.08,South,173,0.0,1.0,49,0.00,,,0.00,Wunderground v.1.15,2013-07-25 23:55:00,
2013-07-25 20:00:00,74.2,54.9,30.08,South,174,0.0,1.0,51,0.00,,,0.00,Wunderground v.1.15,2013-07-26 00:00:00,
2013-07-25 20:06:00,73.6,54.9,30.08,South,174,0.0,0.0,52,0.00,,,0.00,Wunderground v.1.15,2013-07-26 00:06:00,
2013-07-25 20:11:00,73.1,57.4,30.08,South,174,0.0,0.0,58,0.00,,,0.00,Wunderground v.1.15,2013-07-26 00:11:00,
2013-07-25 20:17:00,72.4,56.3,30.08,South,174,0.0,0.0,57,0.00,,,0.00,Wunderground v.1.15,2013-07-26 00:17:00,
2013-07-25 20:23:00,71.7,56.1,30.08,South,174,0.0,0.0,58,0.00,,,0.00,Wunderground v.1.15,2013-07-26 00:23:00,
2013-07-25 20:28:00,71.3,57.2,30.08,South,174,0.0,0.0,61,0.00,,,0.00,Wunderground v.1.15,2013-07-26 00:28:00,
2013-07-25 20:35:00,70.6,56.9,30.08,South,174,0.0,0.0,62,0.00,,,0.00,Wunderground v.1.15,2013-07-26 00:35:00,
2013-07-25 20:40:00,69.9,56.7,30.08,South,173,0.0,0.0,63,0.00,,,0.00,Wunderground v.1.15,2013-07-26 00:40:00,
2013-07-25 20:45:00,69.3,57.0,30.08,South,174,0.0,0.0,65,0.00,,,0.00,Wunderground v.1.15,2013-07-26 00:45:00,
2013-07-25 20:51:00,68.8,56.6,30.08,South,173,0.0,0.0,65,0.00,,,0.00,Wunderground v.1.15,2013-07-26 00:51:00,
2013-07-25 20:57:00,68.0,57.0,30.08,South,173,0.0,0.0,68,0.00,,,0.00,Wunderground v.1.15,2013-07-26 00:57:00,
2013-07-25 21:02:00,67.4,57.3,30.08,South,174,0.0,0.0,70,0.00,,,0.00,Wunderground v.1.15,2013-07-26 01:02:00,
2013-07-25 21:08:00,66.8,57.5,30.08,South,175,0.0,0.0,72,0.00,,,0.00,Wunderground v.1.15,2013-07-26 01:08:00,
2013-07-25 21:13:00,66.4,57.1,30.08,South,174,0.0,0.0,72,0.00,,,0.00,Wunderground v.1.15,2013-07-26 01:13:00,
2013-07-25 21:19:00,65.8,57.3,30.08,South,174,0.0,0.0,74,0.00,,,0.00,Wunderground v.1.15,2013-07-26 01:19:00,
2013-07-25 21:24:00,65.3,57.5,30.07,South,173,0.0,0.0,76,0.00,,,0.00,Wunderground v.1.15,2013-07-26 01:24:00,
2013-07-25 21:30:00,64.8,57.4,30.07,South,174,0.0,0.0,77,0.00,,,0.00,Wunderground v.1.15,2013-07-26 01:30:00,
2013-07-25 21:35:00,64.4,57.7,30.07,South,174,0.0,0.0,79,0.00,,,0.00,Wunderground v.1.15,2013-07-26 01:35:00,
2013-07-25 21:40:00,64.0,57.4,30.08,South,173,0.0,0.0,79,0.00,,,0.00,Wunderground v.1.15,2013-07-26 01:40:00,
2013-07-25 21:45:00,63.5,57.2,30.08,South,173,0.0,0.0,80,0.00,,,0.00,Wunderground v.1.15,2013-07-26 01:45:00,
2013-07-25 21:51:00,63.0,57.4,30.08,South,173,0.0,0.0,82,0.00,,,0.00,Wunderground v.1.15,2013-07-26 01:51:00,
2013-07-25 21:57:00,62.6,57.4,30.08,South,173,0.0,0.0,83,0.00,,,0.00,Wunderground v.1.15,2013-07-26 01:57:00,
2013-07-25 22:02:00,62.2,57.3,30.08,South,174,0.0,0.0,84,0.00,,,0.00,Wunderground v.1.15,2013-07-26 02:02:00,
2013-07-25 22:07:00,61.8,57.2,30.08,South,174,0.0,0.0,85,0.00,,,0.00,Wunderground v.1.15,2013-07-26 02:07:00,
2013-07-25 22:12:00,61.5,57.3,30.08,South,174,0.0,0.0,86,0.00,,,0.00,Wunderground v.1.15,2013-07-26 02:12:00,
2013-07-25 22:17:00,61.3,57.4,30.08,South,174,0.0,0.0,87,0.00,,,0.00,Wunderground v.1.15,2013-07-26 02:17:00,
2013-07-25 22:23:00,61.0,57.1,30.08,South,173,0.0,0.0,87,0.00,,,0.00,Wunderground v.1.15,2013-07-26 02:23:00,
2013-07-25 22:29:00,60.9,57.3,30.08,South,174,0.0,0.0,88,0.00,,,0.00,Wunderground v.1.15,2013-07-26 02:29:00,
2013-07-25 22:34:00,60.8,57.2,30.08,South,174,0.0,0.0,88,0.00,,,0.00,Wunderground v.1.15,2013-07-26 02:34:00,
2013-07-25 22:41:00,60.6,57.0,30.09,South,174,0.0,0.0,88,0.00,,,0.00,Wunderground v.1.15,2013-07-26 02:41:00,
2013-07-25 22:46:00,60.8,57.2,30.09,South,175,0.0,0.0,88,0.00,,,0.00,Wunderground v.1.15,2013-07-26 02:46:00,
2013-07-25 22:52:00,61.4,57.5,30.09,South,175,1.0,1.0,87,0.00,,,0.00,Wunderground v.1.15,2013-07-26 02:52:00,
2013-07-25 22:57:00,62.0,57.4,30.08,South,175,1.0,1.0,85,0.00,,,0.00,Wunderground v.1.15,2013-07-26 02:57:00,
2013-07-25 23:03:00,62.5,57.6,30.08,South,178,1.0,3.0,84,0.00,,,0.00,Wunderground v.1.15,2013-07-26 03:03:00,
2013-07-25 23:10:00,63.0,57.8,30.09,SSW,198,1.0,5.0,83,0.00,,,0.00,Wunderground v.1.15,2013-07-26 03:10:00,
2013-07-25 23:15:00,63.2,57.6,30.10,SSW,198,1.0,5.0,82,0.00,,,0.00,Wunderground v.1.15,2013-07-26 03:15:00,
2013-07-25 23:20:00,63.3,57.7,30.09,SSW,199,1.0,4.0,82,0.00,,,0.00,Wunderground v.1.15,2013-07-26 03:20:00,
2013-07-25 23:25:00,63.3,57.4,30.09,SSW,199,1.0,4.0,81,0.00,,,0.00,Wunderground v.1.15,2013-07-26 03:25:00,
2013-07-25 23:31:00,63.3,57.4,30.09,SSW,200,0.0,1.0,81,0.00,,,0.00,Wunderground v.1.15,2013-07-26 03:31:00,
2013-07-25 23:36:00,63.2,57.3,30.09,SSW,199,0.0,0.0,81,0.00,,,0.00,Wunderground v.1.15,2013-07-26 03:36:00,
2013-07-25 23:41:00,63.2,57.6,30.10,SSW,200,1.0,3.0,82,0.00,,,0.00,Wunderground v.1.15,2013-07-26 03:41:00,
2013-07-25 23:47:00,63.2,57.3,30.11,SSW,201,1.0,1.0,81,0.00,,,0.00,Wunderground v.1.15,2013-07-26 03:47:00,
2013-07-25 23:52:00,63.2,57.3,30.11,SSW,201,0.0,1.0,81,0.00,,,0.00,Wunderground v.1.15,2013-07-26 03:52:00,
2013-07-25 23:58:00,63.0,57.1,30.11,SSW,200,0.0,0.0,81,0.00,,,0.00,Wunderground v.1.15,2013-07-26 03:58:00,